This demonstration page uses our WeatherBlox Daily Observations layout. Learn more.

Hourly Observations for November 18, 2018

Temp ( °F °C ) Dew Point ( °F °C ) Humidity (%) Winds ( mph kmh ) Pressure ( in mb ) Visibility ( mi km ) Precip ( " mm )
12:15 am 00:15 Cloudy 18 -7.6 15 -9.7 85 85 N 8 13 30.56 1035 10 16.09344 0 0
12:35 am 00:35 Mostly Cloudy 17 -8.3 14 -10.1 87 87 N 8 13 30.56 1035 10 16.09344 0 0
12:55 am 00:55 Clear 16 -8.8 12 -10.9 85 85 N 8 13 30.56 1035 10 16.09344 0 0
1:15 am 01:15 Clear 15 -9.5 12 -11.1 88 88 Calm 30.59 1036 10 16.09344 0 0
1:35 am 01:35 Clear 14 -10.1 11 -11.6 89 89 N 3 6 30.59 1036 10 16.09344 0 0
1:55 am 01:55 Clear 12 -11 10 -12.2 91 91 NNW 3 6 30.59 1036 10 16.09344 0 0
2:15 am 02:15 Clear 11 -11.5 10 -12.5 92 92 Calm 30.59 1036 10 16.09344 0 0
2:35 am 02:35 Clear 8 -13.1 7 -13.9 94 94 WNW 3 6 30.59 1036 10 16.09344 0 0
2:55 am 02:55 Clear 10 -12.5 8 -13.3 94 94 W 5 7 30.62 1037 10 16.09344 0 0
3:15 am 03:15 Clear 10 -12 10 -12.5 96 96 W 3 6 30.56 1035 10 16.09344 0 0
3:35 am 03:35 Clear 10 -12.4 9 -12.9 96 96 Calm 30.59 1036 10 16.09344 0 0
3:55 am 03:55 Clear 10 -12.1 9 -12.7 95 95 Calm 30.59 1036 10 16.09344 0 0
4:15 am 04:15 Clear 10 -12.5 9 -12.8 98 98 WSW 3 6 30.59 1036 10 16.09344 0 0
4:35 am 04:35 Clear 10 -12.5 9 -13 96 96 W 3 6 30.59 1036 10 16.09344 0 0
4:55 am 04:55 Clear 9 -12.7 8 -13.2 96 96 W 5 7 30.59 1036 10 16.09344 0 0
5:15 am 05:15 Clear 9 -13 8 -13.5 96 96 W 5 7 30.56 1035 10 16.09344 0 0
5:35 am 05:35 Clear 7 -14 5 -14.8 94 94 W 3 6 30.56 1035 10 16.09344 0 0
5:55 am 05:55 Clear 9 -12.8 8 -13.3 96 96 W 6 9 30.56 1035 10 16.09344 0 0
6:15 am 06:15 Clear 9 -12.9 8 -13.5 95 95 W 5 7 30.56 1035 10 16.09344 0 0
6:35 am 06:35 Clear 11 -11.8 10 -12.4 95 95 WSW 5 7 30.53 1034 10 16.09344 0 0
6:55 am 06:55 Clear 11 -11.6 10 -12.1 96 96 W 5 7 30.53 1034 10 16.09344 0 0
7:15 am 07:15 Clear 14 -10.2 13 -10.6 97 97 WSW 5 7 30.53 1034 10 16.09344 0 0
7:35 am 07:35 Sunny 14 -9.9 13 -10.5 95 95 W 7 11 30.53 1034 10 16.09344 0 0
7:55 am 07:55 Sunny 15 -9.7 13 -10.4 95 95 WSW 5 7 30.53 1034 10 16.09344 0 0
8:15 am 08:15 Sunny 15 -9.6 14 -10.2 95 95 WSW 5 7 30.53 1034 10 16.09344 0 0
8:35 am 08:35 Sunny 17 -8.6 15 -9.3 95 95 WSW 5 7 30.48 1032 10 16.09344 0 0
8:55 am 08:55 Sunny 18 -7.6 16 -8.7 92 92 SW 7 11 30.48 1032 10 16.09344 0 0
9:15 am 09:15 Sunny 19 -7.3 16 -8.7 90 90 SW 7 11 30.48 1032 10 16.09344 0 0
9:35 am 09:35 Sunny 20 -6.7 17 -8.3 89 89 SW 6 9 30.45 1031 10 16.09344 0 0
9:55 am 09:55 Sunny 21 -6 18 -7.9 87 87 WSW 7 11 30.45 1031 10 16.09344 0 0
10:15 am 10:15 Sunny 22 -5.5 18 -7.6 85 85 WSW 7 11 30.45 1031 10 16.09344 0 0
10:35 am 10:35 Sunny 23 -5 19 -7.1 85 85 WSW 6 9 30.42 1030 10 16.09344 0 0
10:55 am 10:55 Sunny 25 -4 20 -6.5 83 83 WSW 9 15 30.39 1029 10 16.09344 0 0
11:15 am 11:15 Sunny 26 -3.2 21 -6.2 80 80 WSW 8 13 30.39 1029 10 16.09344 0 0
11:35 am 11:35 Sunny 27 -2.7 21 -6 78 78 WSW 8 13 30.39 1029 10 16.09344 0 0
11:55 am 11:55 Sunny 28 -2 21 -5.9 75 75 SW 9 15 30.36 1028 10 16.09344 0 0
12:15 pm 12:15 Sunny 29 -1.5 22 -5.3 76 76 SW 8 13 30.3 1026 10 16.09344 0 0
12:35 pm 12:35 Sunny 29 -1.5 22 -5.6 74 74 WSW 10 17 30.3 1026 10 16.09344 0 0
12:55 pm 12:55 Sunny 30 -0.9 23 -5.2 73 73 SW 10 17 30.3 1026 10 16.09344 0 0
1:15 pm 13:15 Sunny 31 -0.5 24 -4.7 74 74 SW 9 15 30.27 1025 10 16.09344 0 0
1:35 pm 13:35 Sunny 32 0 25 -4.1 74 74 SW 8 13 30.27 1025 10 16.09344 0 0
1:55 pm 13:55 Sunny 32 0.2 25 -3.8 75 75 SW 9 15 30.24 1024 10 16.09344 0 0
2:15 pm 14:15 Sunny 34 0.9 26 -3.5 73 73 SW 10 17 30.21 1023 10 16.09344 0 0
2:35 pm 14:35 Sunny 35 1.7 26 -3.1 71 71 SW 9 15 30.21 1023 10 16.09344 0 0
2:55 pm 14:55 Sunny 36 2.2 28 -2.5 71 71 SW 13 20 30.21 1023 10 16.09344 0 0
3:15 pm 15:15 Sunny 37 2.5 28 -2.2 71 71 SW 10 17 30.21 1023 10 16.09344 0 0
3:35 pm 15:35 Sunny 37 2.9 29 -1.9 71 71 SW 10 17 30.18 1022 10 16.09344 0 0
3:55 pm 15:55 Sunny 37 3 28 -2.1 69 69 SW 12 19 30.18 1022 10 16.09344 0 0
4:15 pm 16:15 Sunny 37 3 28 -2 70 70 SW 8 13 30.18 1022 10 16.09344 0 0
4:35 pm 16:35 Sunny 37 2.8 28 -2.1 70 70 SW 7 11 30.18 1022 10 16.09344 0 0
4:55 pm 16:55 Sunny 36 2.3 28 -2.1 73 73 SSW 6 9 30.18 1022 10 16.09344 0 0
5:15 pm 17:15 Sunny 35 1.8 28 -2.3 75 75 SSW 8 13 30.15 1021 10 16.09344 0 0
5:35 pm 17:35 Clear 34 1.3 27 -2.6 76 76 SSW 7 11 30.15 1021 10 16.09344 0 0
5:55 pm 17:55 Clear 33 0.8 27 -3 76 76 S 8 13 30.15 1021 10 16.09344 0 0
6:15 pm 18:15 Clear 32 0.2 26 -3.4 77 77 SSW 5 7 30.15 1021 10 16.09344 0 0
6:35 pm 18:35 Clear 31 -0.5 25 -3.8 79 79 SSW 5 7 30.18 1022 10 16.09344 0 0
6:55 pm 18:55 Clear 30 -1.2 24 -4.2 80 80 SSW 5 7 30.18 1022 10 16.09344 0 0
7:15 pm 19:15 Clear 31 -0.8 25 -4 79 79 SSW 6 9 30.18 1022 10 16.09344 0 0
7:35 pm 19:35 Clear 30 -1 24 -4.2 79 79 SSW 6 9 30.15 1021 10 16.09344 0 0
7:55 pm 19:55 Clear 29 -1.8 24 -4.4 83 83 SSW 7 11 30.15 1021 10 16.09344 0 0
8:15 pm 20:15 Clear 29 -1.9 24 -4.5 83 83 SW 6 9 30.15 1021 10 16.09344 0 0
8:35 pm 20:35 Clear 29 -1.5 24 -4.2 82 82 SW 6 9 30.15 1021 10 16.09344 0 0
8:55 pm 20:55 Clear 29 -1.7 24 -4.5 81 81 SSW 7 11 30.15 1021 10 16.09344 0 0
9:15 pm 21:15 Clear 29 -1.7 24 -4.3 83 83 SSW 7 11 30.15 1021 10 16.09344 0 0
9:35 pm 21:35 Clear 29 -1.9 24 -4.3 84 84 SSW 8 13 30.15 1021 10 16.09344 0 0
9:55 pm 21:55 Clear 29 -1.5 25 -4 83 83 SSW 7 11 30.15 1021 10 16.09344 0 0
10:15 pm 22:15 Clear 29 -1.8 24 -4.3 83 83 SW 7 11 30.15 1021 10 16.09344 0 0
10:35 pm 22:35 Clear 28 -2.5 24 -4.5 86 86 SW 6 9 30.15 1021 10 16.09344 0 0
10:55 pm 22:55 Clear 27 -2.6 24 -4.5 87 87 SW 8 13 30.12 1020 10 16.09344 0 0
11:15 pm 23:15 Clear 27 -2.8 24 -4.5 88 88 SW 7 11 30.12 1020 10 16.09344 0 0
11:35 pm 23:35 Clear 27 -2.9 24 -4.6 88 88 WSW 5 7 30.12 1020 10 16.09344 0 0
11:55 pm 23:55 Clear 27 -2.6 24 -4.5 87 87 SW 6 9 30.12 1020 10 16.09344 0 0

Powered by AerisWeather